FW1555 Weather Reports


time (UTC)temp
C
wind
direction
speed
KPH
gust
KPH
rain 1hr
cm
rain 24hr
cm
rain mn
cm
humidity
%
barometer
mb
20260904174602 28 0 0.0 8.0 0.00 0.00 0.00 60 1011.1
20260904173059 28 0 0.0 11.3 0.00 0.00 0.00 64 1011.0
20260904171602 27 0 0.0 4.8 0.00 0.00 0.00 63 1011.0
20260904164604 27 0 1.6 12.9 0.00 0.00 0.00 65 1011.3
20260904163100 27 265 1.6 17.7 0.00 0.00 0.00 67 1011.2
20260904161603 27 264 1.6 12.9 0.00 0.00 0.00 67 1011.3
20260904160059 27 352 1.6 11.3 0.00 0.00 0.00 66 1011.5
20260904154558 27 0 0.0 6.4 0.00 0.00 0.00 68 1011.4
20260904153101 27 0 1.6 6.4 0.00 0.00 0.00 68 1011.6
20260904151603 27 0 0.0 4.8 0.00 0.00 0.00 70 1011.7
20260904150056 27 0 0.0 4.8 0.00 0.00 0.00 72 1011.7
20260904144555 27 0 1.6 12.9 0.00 0.00 0.00 71 1011.7
20260904143104 26 0 0.0 4.8 0.00 0.00 0.00 75 1011.6
20260904141619 26 0 0.0 4.8 0.00 0.00 0.00 77 1011.7
20260904140059 25 0 0.0 4.8 0.00 0.00 0.00 81 1011.6
20260904134557 25 0 0.0 4.8 0.00 0.00 0.00 83 1011.6
20260904133052 25 0 0.0 1.6 0.00 0.00 0.00 84 1011.6
20260904131632 24 0 0.0 1.6 0.00 0.00 0.00 87 1011.7
20260904130058 24 0 0.0 1.6 0.00 0.00 0.00 87 1011.7
20260904124558 24 0 0.0 1.6 0.00 0.00 0.00 88 1011.7
20260904123108 23 0 0.0 1.6 0.00 0.00 0.00 92 1011.8
20260904121552 22 0 0.0 9.7 0.00 0.00 0.00 94 1011.6
20260904120051 22 0 0.0 0.0 0.00 0.00 0.00 95 1011.7
20260904114550 21 0 0.0 3.2 0.00 0.03 0.00 95 1011.7
20260904113100 21 0 0.0 0.0 0.00 0.03 0.00 96 1011.6
20260904111556 21 0 0.0 3.2 0.00 0.03 0.00 96 1011.2
20260904110049 21 0 0.0 0.0 0.00 0.03 0.00 97 1011.2
20260904104610 21 0 0.0 0.0 0.00 0.03 0.00 97 1011.0
20260904103106 21 0 0.0 0.0 0.00 0.03 0.00 98 1010.9
20260904101605 21 0 0.0 3.2 0.00 0.03 0.00 98 1010.8
20260904100100 21 0 0.0 0.0 0.00 0.03 0.00 98 1010.7
20260904094600 21 0 0.0 0.0 0.00 0.03 0.00 98 1010.3
20260904093056 22 0 0.0 0.0 0.00 0.03 0.00 97 1010.2
20260904091551 22 0 0.0 0.0 0.00 0.03 0.00 98 1010.1
20260904090049 22 0 0.0 4.8 0.00 0.03 0.00 98 1010.1
20260904084559 22 0 0.0 0.0 0.00 0.03 0.00 98 1010.2
20260904083058 22 0 0.0 0.0 0.00 0.03 0.00 98 1009.9
20260904081552 22 0 0.0 0.0 0.00 0.03 0.00 98 1010.1
20260904080049 22 0 0.0 0.0 0.00 0.03 0.00 99 1009.7
20260904074622 23 0 0.0 0.0 0.00 0.05 0.00 99 1009.9
20260904073053 22 0 0.0 0.0 0.00 0.05 0.00 99 1010.2
20260904071552 22 0 0.0 0.0 0.00 0.05 0.00 98 1009.9
20260904070051 23 0 0.0 0.0 0.00 0.05 0.00 98 1009.7
20260904064556 23 0 0.0 0.0 0.00 0.10 0.00 98 1010.0
20260904063106 23 0 0.0 0.0 0.00 0.10 0.00 98 1010.6
20260904061604 23 0 0.0 0.0 0.00 0.10 0.00 98 1010.7
20260904060114 23 0 0.0 0.0 0.00 0.10 0.00 97 1010.4
20260904054601 23 0 0.0 0.0 0.00 0.38 0.00 97 1010.8
20260904053053 23 0 0.0 0.0 0.00 0.38 0.00 97 1011.3
20260904051601 23 0 0.0 0.0 0.00 0.38 0.00 97 1011.1
20260904050100 23 0 0.0 0.0 0.00 0.38 0.00 97 1011.1
20260904044601 23 0 0.0 0.0 0.00 0.64 0.00 97 1011.3
20260904043051 23 0 0.0 0.0 0.00 0.64 0.00 96 1011.3
20260904041551 23 0 0.0 0.0 0.00 0.64 0.00 96 1011.7
20260904040105 23 0 0.0 0.0 0.00 0.64 0.00 96 1011.7
20260904034604 23 0 0.0 0.0 0.00 0.64 0.64 96 1011.5
20260904033052 23 0 0.0 0.0 0.00 0.64 0.64 96 1011.3
20260904031601 23 0 0.0 0.0 0.00 0.64 0.64 96 1011.4
20260904030058 23 0 0.0 0.0 0.00 0.64 0.64 96 1011.6
20260904024551 23 0 0.0 0.0 0.00 0.64 0.64 95 1011.6
20260904023050 23 0 0.0 0.0 0.00 0.64 0.64 95 1012.1
20260904021601 23 0 0.0 0.0 0.00 0.64 0.64 95 1012.2
20260904020100 23 0 0.0 0.0 0.00 0.64 0.64 95 1012.4
20260904014556 23 0 0.0 0.0 0.00 0.64 0.64 95 1012.6
20260904013051 23 0 0.0 0.0 0.00 0.64 0.64 94 1012.4
20260904011551 23 0 0.0 0.0 0.00 0.64 0.64 94 1012.4
20260904010054 23 0 0.0 0.0 0.00 0.64 0.64 93 1012.3
20260904004601 23 0 0.0 0.0 0.00 0.64 0.64 93 1012.3
20260904003051 24 0 0.0 0.0 0.00 0.64 0.64 92 1012.5
20260904001550 24 0 0.0 0.0 0.00 0.64 0.64 91 1012.1
20260904000134 25 0 0.0 0.0 0.00 0.64 0.64 90 1011.9
20260903234556 25 0 0.0 0.0 0.00 0.64 0.64 89 1011.9
20260903233052 25 0 0.0 0.0 0.00 0.64 0.64 88 1011.7
20260903231549 26 0 0.0 0.0 0.00 0.64 0.64 87 1011.3
20260903230108 27 0 0.0 0.0 0.00 0.64 0.64 84 1011.6
20260903224606 27 0 0.0 0.0 0.00 0.64 0.64 81 1011.8
20260903223101 28 0 0.0 0.0 0.00 0.64 0.64 80 1012.0
20260903221600 28 0 0.0 0.0 0.00 0.64 0.64 79 1012.1
20260903220118 29 0 0.0 0.0 0.00 0.64 0.64 78 1011.9
20260903214557 29 0 0.0 0.0 0.00 0.64 0.64 77 1011.9
20260903213052 30 0 0.0 0.0 0.00 0.64 0.64 75 1011.9
20260903211615 29 0 0.0 0.0 0.00 0.64 0.64 76 1011.8
20260903204558 30 0 0.0 0.0 0.00 0.64 0.64 73 1011.9
20260903203053 30 0 0.0 3.2 0.00 0.64 0.64 74 1011.9
20260903201559 30 0 0.0 1.6 0.00 0.64 0.64 75 1011.9
20260903200053 28 0 0.0 3.2 0.00 0.64 0.64 76 1012.0
20260903194551 28 0 0.0 6.4 0.00 0.69 0.64 79 1012.1
20260903193100 29 261 3.2 12.9 0.00 0.69 0.64 74 1012.3
20260903191553 29 236 0.0 8.0 0.00 0.69 0.64 75 1012.5
20260903190050 29 0 0.0 11.3 0.00 0.69 0.64 72 1012.5
20260903184604 29 0 0.0 3.2 0.00 0.97 0.64 73 1012.7
20260903183058 28 0 0.0 11.3 0.00 0.97 0.64 74 1012.7
20260903181555 28 0 0.0 6.4 0.00 0.97 0.64 76 1012.7
20260903180104 27 0 0.0 11.3 0.00 0.97 0.64 77 1012.6